Regional Weather Roundup
Issued by NWS Upton, NY

Current Version | Previous Version | Text Only | Print | Product List | Glossary Off
Versions: 1 2 3 4 5 6 7 8 9 10 11 12 13 14 15 16 17 18 19 20 21 22 23 24 25 26 27 28 29 30 31 32 33 34 35 36 37 38 39 40 41 42 43 44 45 46 47 48 49 50
239 ASUS41 KOKX 231908 RWROKX REGIONAL WEATHER ROUNDUP NATIONAL WEATHER SERVICE NEW YORK NY 200 PM EST MON JAN 23 2017 NOTE: "FAIR" INDICATES FEW OR NO CLOUDS BELOW 12,000 FEET WITH NO SIGNIFICANT WEATHER AND/OR OBSTRUCTIONS TO VISIBILITY. NYZ071-072-176-178-NJZ106-104-232000- NEW YORK CITY METRO AREA CITY SKY/WX TMP DP RH WIND PRES REMARKS Central Park CLOUDY 40 31 70 E20G39 29.72F WCI 30 Wall St Helipt CLOUDY 41 32 70 NE28G40 29.68F LaGuardia APRT CLOUDY 42 31 64 NE32G43 29.71F Kennedy INTL CLOUDY 42 30 62 NE29G39 29.71F Breezy Point N/A 39 N/A N/A NE24G35 N/A WCI 28 Newark/Liberty LGT RAIN 41 31 67 NE21G46 29.70F Teterboro CLOUDY 41 30 65 NE18G36 29.70F $$ NYZ177-179-078>081-232000- LONG ISLAND NEW YORK CITY SKY/WX TMP DP RH WIND PRES REMARKS Jones Beach N/A 39 N/A N/A NE40G48 N/A WCI 26 Matinecock PT NOT AVBL Farmingdale CLOUDY 40 30 67 E25G39 29.71F WCI 29 MacArthur/ISP CLOUDY 39 31 72 NE25G40 29.72F WCI 28 Shirley CLOUDY 39 31 72 NE15G30 29.75F WCI 31 Westhampton CLOUDY 39 30 70 NE20G45 29.76F WCI 29 Southampton NOT AVBL Bridgehampton NOT AVBL East Hampton CLOUDY 38 32 79 NE24G32 29.78F WCI 27 Montauk N/A 39 34 82 NE18G37 29.81F WCI 30 $$ NYZ052-065-067-232000- HUDSON VALLEY CITY SKY/WX TMP DP RH WIND PRES REMARKS White Plains CLOUDY 40 28 62 E21G30 29.72F WCI 30 Newburgh CLOUDY 37 30 75 MISG 29.79F Montgomery CLOUDY 39 28 64 NE21G31 29.76F WCI 29 Poughkeepsie CLOUDY 38 27 64 NE15G25 29.80F WCI 29 Albany CLOUDY 38 24 57 NE14 29.90F WCI 30 $$ NJZ001-105-106-008-010-013-015-019>022-104-232000- NEW JERSEY CITY SKY/WX TMP DP RH WIND PRES REMARKS Newark/Liberty LGT RAIN 41 31 67 NE21G46 29.70F Teterboro CLOUDY 41 30 65 NE18G36 29.70F Caldwell LGT RAIN 40 30 67 E21G31 29.72F WCI 30 Somerville LGT RAIN 38 31 76 NE12G23 29.66F WCI 30 Linden DRIZZLE 40 31 71 E28G36 29.70S WCI 29 Sussex CLOUDY 37 30 75 NE18G26 29.70F WCI 27 Andover N/A 37 29 72 VRB7G23 29.69F WCI 32 Trenton LGT RAIN 38 34 85 E20G41 29.60F WCI 28 Millville RAIN 42 41 96 NE23G43 29.46F FOG Atlantic City RAIN 43 39 86 NE35G52 29.45F FOG Wrightstown CLOUDY 39 37 93 NE29G43 29.55F FOG WCI 28 Toms River LGT RAIN 40 38 93 NE26G38 29.59F FOG WCI 29 Belmar LGT RAIN 39 36 89 NE32G54 29.61F FOG WCI 27 $$ PAZ047>061-062-071-232000- EASTERN PENNSYLVANIA CITY SKY/WX TMP DP RH WIND PRES REMARKS Philadelphia LGT RAIN 39 36 89 NE24G43 29.55F FOG WCI 28 Allentown LGT RAIN 39 30 70 E25G31 29.63F WCI 28 Scranton CLOUDY 37 28 70 E15G26 29.65F WCI 28 $$ CTZ002-004>006-009-010-012-RIZ004-006-007-MAZ004-011-015-232000- SOUTHERN NEW ENGLAND IN CT CITY SKY/WX TMP DP RH WIND PRES REMARKS Bradley INTL CLOUDY 38 30 73 NE15 29.88F WCI 29 Hartford CLOUDY 40 28 62 E18G28 29.85F WCI 31 Danbury CLOUDY 38 29 70 NE17G26 29.77F WCI 28 Wtrbury/Oxford CLOUDY 37 27 65 E9G26 29.78F WCI 31 Bridgeport CLOUDY 42 30 62 NE25G36 29.79F Meriden CLOUDY 42 28 57 NE13G22 29.81F New Haven CLOUDY 40 29 64 NE20G30 29.79F WCI 30 Chester CLOUDY 39 28 65 NE17G28 29.78F WCI 30 Groton CLOUDY 40 30 67 NE23G31 29.81F WCI 30 Wilimantic CLOUDY 39 31 72 NE20 29.87S WCI 29 IN RI CITY SKY/WX TMP DP RH WIND PRES REMARKS Providence LGT RAIN 38 32 79 NE20G28 29.89F WCI 28 Block Island NOT AVBL Westerly CLOUDY 39 29 67 NE17G28 29.84F WCI 30 IN MA CITY SKY/WX TMP DP RH WIND PRES REMARKS Boston CLOUDY 37 33 85 NE26 29.98S WCI 25 Worcester CLOUDY 31 28 89 NE20G30 29.88S WCI 19 Westfield CLOUDY 36 28 73 NE14G23 29.89F WCI 27 Provincetown LGT RAIN 37 34 89 E22G33 29.95F WCI 26 Nantucket CLOUDY 41 33 73 NE24G39 29.84F $$ ANZ330-335-338-340-345-350-353-355-232000- COASTAL MARINE OBSERVATIONS STATION/POSITION TIME SKY/WX TEMP WIND PRES VSBY WAVE AIR SEA DIR/SP/G HT/PER (UTC) (F) (DEG/KT/KT) (MB) (MI) (FT/S) NY HARB ENTRANCE 1750 41 42 60/ 37/ 47 1003.8 14/10 20 S FIRE ISLAND 1850 41 45 60/ 37/ 45 1002.3 16/10 GREAT SOUTH BAY NOT AVBL 23 SSW MONTAUK P 1750 41 47 60/ 35/ 41 1007.2 14/ 9 15 E BARNEGAT LI 1830 47 N/A 19/10 HUDSON CANYON 1750 48 52 1001.2 17/11 KINGS POINT 1842 39 39 1006.1 EXECUTION ROCKS 1845 40 70/ 27/ 39 N/A CENTRAL LI SOUND 1815 40 80/ 27/ 31 N/A 6/ 6 EASTERN LI SOUND NOT AVBL ROBBINS REEF 1842 40 60/ 29/ 37 1005.0 $$ >>>>>>>>>>>>>>>>>>>>>>>>>>>> KEY <<<<<<<<<<<<<<<<<<<<<<<<<<< > < > SKY/WX - Sky Condition/Present Weather < > TMP - Temperature in Fahrenheit < > DP - Dew Point in Fahrenheit < > RH - Relative Humidity in Percent < > WIND - Direction (from) and Speed in MPH < > PRES - Mean Sea Level Pressure (inches of Hg) < > WCI - Wind Chill Index < > VSB - VISIBILITY IN MILES < > HX - HEAT INDEX < > TC - TEMPERATURE IN CELSIUS < > VRB - VARIABLE WIND DIRECTION < > < >>>>>>>>>>>>>>>>>>>>>>>>>>>> KEY <<<<<<<<<<<<<<<<<<<<<<<<<<<

USA.gov is the U.S. government's official web portal to all federal, state and local government web resources and services.